• Em Portugal
  • Lista de países
  • Para 7 dias
  • Temperatura da água
  • Mapas de satélite
  • Mapa do tempo
  • Widgets de tempo
  • user-avatar
    Iniciar Sessão

    Previsão horária em Andryushino

    Hoje, 21 Setembro, Sexta-feira

    Tempo Temperatura Precipitação Vento Pressão Humidade
    00:00 +15°C° 0 mm 2 m/s 742 mmHg 86%
    01:00 +15°C° 0 mm 2 m/s 742 mmHg 87%
    02:00 +15°C° 0 mm 2 m/s 743 mmHg 89%
    03:00 +15°C° 0 mm 2 m/s 743 mmHg 90%
    04:00 +15°C° 0 mm 2 m/s 743 mmHg 90%
    05:00 +15°C° 0 mm 2 m/s 743 mmHg 91%
    06:00 +16°C° 0 mm 2 m/s 743 mmHg 87%
    07:00 +17°C° 0 mm 3 m/s 743 mmHg 83%
    08:00 +18°C° 0 mm 3 m/s 743 mmHg 80%
    09:00 +19°C° 0 mm 3 m/s 743 mmHg 75%
    10:00 +21°C° 0 mm 3 m/s 743 mmHg 69%
    11:00 +24°C° 0 mm 3 m/s 743 mmHg 64%
    12:00 +24°C° 0 mm 3 m/s 743 mmHg 60%
    13:00 +25°C° 0 mm 4 m/s 742 mmHg 57%
    14:00 +26°C° 0 mm 4 m/s 742 mmHg 54%
    15:00 +25°C° 0 mm 3 m/s 742 mmHg 59%
    16:00 +25°C° 0 mm 3 m/s 742 mmHg 63%
    17:00 +24°C° 0 mm 2 m/s 741 mmHg 68%
    18:00 +21°C° 0 mm 3 m/s 741 mmHg 72%
    19:00 +20°C° 0 mm 3 m/s 741 mmHg 76%
    20:00 +19°C° 0 mm 3 m/s 740 mmHg 79%
    21:00 +18°C° 0 mm 3 m/s 740 mmHg 77%
    22:00 +18°C° 0 mm 3 m/s 740 mmHg 75%
    23:00 +18°C° 0 mm 4 m/s 740 mmHg 73%

    Amanhã, 22 Setembro, Sábado

    Tempo Temperatura Precipitação Vento Pressão Humidade
    00:00 +18°C° 0 mm 4 m/s 739 mmHg 72%
    01:00 +17°C° 0 mm 4 m/s 738 mmHg 72%
    02:00 +17°C° 0 mm 4 m/s 738 mmHg 71%
    03:00 +16°C° 0 mm 5 m/s 737 mmHg 71%
    04:00 +16°C° 0 mm 5 m/s 737 mmHg 71%
    05:00 +16°C° 0 mm 5 m/s 736 mmHg 72%
    06:00 +16°C° 0 mm 5 m/s 736 mmHg 70%
    07:00 +17°C° 0 mm 5 m/s 736 mmHg 69%
    08:00 +17°C° 0 mm 6 m/s 736 mmHg 67%
    09:00 +17°C° 0.1 mm 6 m/s 736 mmHg 69%
    10:00 +16°C° 0.1 mm 5 m/s 736 mmHg 71%
    11:00 +16°C° 0.1 mm 5 m/s 737 mmHg 73%
    12:00 +14°C° 0.1 mm 5 m/s 737 mmHg 76%
    13:00 +13°C° 0.1 mm 4 m/s 737 mmHg 78%
    14:00 +11°C° 0.1 mm 3 m/s 738 mmHg 81%
    15:00 +11°C° 0.2 mm 3 m/s 738 mmHg 83%
    16:00 +11°C° 0.2 mm 4 m/s 738 mmHg 85%
    17:00 +10°C° 0.2 mm 4 m/s 738 mmHg 88%
    18:00 +10°C° 0.1 mm 4 m/s 738 mmHg 88%
    19:00 +10°C° 0.1 mm 3 m/s 738 mmHg 88%
    20:00 +10°C° 0.1 mm 3 m/s 738 mmHg 88%
    21:00 +10°C° 0 mm 3 m/s 738 mmHg 88%
    22:00 +10°C° 0 mm 3 m/s 738 mmHg 88%
    23:00 +9°C° 0 mm 3 m/s 738 mmHg 88%

    Depois de amanhã, 23 Setembro, Domingo

    Tempo Temperatura Precipitação Vento Pressão Humidade
    00:00 +9°C° 0 mm 3 m/s 738 mmHg 90%
    01:00 +8°C° 0 mm 3 m/s 737 mmHg 91%
    02:00 +8°C° 0 mm 2 m/s 737 mmHg 93%
    03:00 +7°C° 0 mm 3 m/s 737 mmHg 94%
    04:00 +7°C° 0 mm 3 m/s 737 mmHg 95%
    05:00 +7°C° 0 mm 3 m/s 736 mmHg 97%
    06:00 +7°C° 0 mm 3 m/s 736 mmHg 93%
    07:00 +8°C° 0 mm 3 m/s 736 mmHg 90%
    08:00 +8°C° 0 mm 4 m/s 736 mmHg 86%
    09:00 +10°C° 0 mm 4 m/s 736 mmHg 80%
    10:00 +11°C° 0 mm 4 m/s 735 mmHg 74%
    11:00 +12°C° 0 mm 5 m/s 735 mmHg 68%
    12:00 +12°C° 0.2 mm 5 m/s 735 mmHg 66%
    13:00 +12°C° 0.2 mm 5 m/s 735 mmHg 65%
    14:00 +13°C° 0.2 mm 5 m/s 735 mmHg 64%
    15:00 +12°C° 0.2 mm 4 m/s 735 mmHg 69%
    16:00 +11°C° 0.2 mm 4 m/s 735 mmHg 74%
    17:00 +10°C° 0.2 mm 4 m/s 735 mmHg 78%
    18:00 +10°C° 0.1 mm 4 m/s 735 mmHg 82%
    19:00 +8°C° 0.1 mm 4 m/s 735 mmHg 85%
    20:00 +8°C° 0.1 mm 3 m/s 735 mmHg 88%
    21:00 +7°C° 0.2 mm 4 m/s 734 mmHg 90%
    22:00 +7°C° 0.2 mm 4 m/s 734 mmHg 91%
    23:00 +7°C° 0.2 mm 4 m/s 734 mmHg 92%

    24 Setembro, Segunda-feira

    Tempo Temperatura Precipitação Vento Pressão Humidade
    00:00 +6°C° 0 mm 4 m/s 734 mmHg 93%
    01:00 +6°C° 0 mm 4 m/s 734 mmHg 94%
    02:00 +7°C° 0 mm 3 m/s 734 mmHg 95%
    03:00 +5°C° 0 mm 3 m/s 734 mmHg 95%
    04:00 +5°C° 0 mm 3 m/s 734 mmHg 95%
    05:00 +5°C° 0 mm 3 m/s 734 mmHg 95%
    06:00 +5°C° 0 mm 3 m/s 734 mmHg 94%
    07:00 +7°C° 0 mm 2 m/s 734 mmHg 93%
    08:00 +7°C° 0 mm 2 m/s 734 mmHg 91%
    09:00 +8°C° 0 mm 2 m/s 734 mmHg 88%
    10:00 +9°C° 0 mm 1 m/s 734 mmHg 85%
    11:00 +10°C° 0 mm 1 m/s 734 mmHg 81%
    12:00 +10°C° 0 mm 1 m/s 734 mmHg 80%
    13:00 +11°C° 0 mm 1 m/s 733 mmHg 78%
    14:00 +11°C° 0 mm 1 m/s 733 mmHg 76%
    15:00 +11°C° 0.1 mm 1 m/s 733 mmHg 79%
    16:00 +9°C° 0.1 mm 2 m/s 733 mmHg 81%
    17:00 +9°C° 0.1 mm 2 m/s 733 mmHg 83%
    18:00 +8°C° 0.2 mm 2 m/s 734 mmHg 85%
    19:00 +8°C° 0.2 mm 2 m/s 734 mmHg 86%
    20:00 +7°C° 0.2 mm 3 m/s 734 mmHg 88%
    21:00 +7°C° 0 mm 3 m/s 734 mmHg 87%
    22:00 +7°C° 0 mm 3 m/s 734 mmHg 86%
    23:00 +5°C° 0 mm 4 m/s 734 mmHg 85%

    25 Setembro, Terça-feira

    Tempo Temperatura Precipitação Vento Pressão Humidade
    00:00 +5°C° 0 mm 4 m/s 735 mmHg 85%
    01:00 +5°C° 0 mm 4 m/s 735 mmHg 85%
    02:00 +4°C° 0 mm 4 m/s 735 mmHg 84%
    03:00 +4°C° 0 mm 4 m/s 736 mmHg 85%
    04:00 +4°C° 0 mm 4 m/s 736 mmHg 86%
    05:00 +3°C° 0 mm 4 m/s 736 mmHg 87%
    06:00 +4°C° 0 mm 4 m/s 737 mmHg 85%
    07:00 +3°C° 0 mm 5 m/s 737 mmHg 82%
    08:00 +5°C° 0 mm 5 m/s 738 mmHg 80%
    09:00 +5°C° 0 mm 6 m/s 738 mmHg 74%
    10:00 +5°C° 0 mm 6 m/s 738 mmHg 68%
    11:00 +7°C° 0 mm 6 m/s 739 mmHg 62%
    12:00 +7°C° 0.1 mm 6 m/s 739 mmHg 61%
    13:00 +6°C° 0.1 mm 7 m/s 739 mmHg 59%
    14:00 +8°C° 0.1 mm 7 m/s 739 mmHg 57%
    15:00 +7°C° 0 mm 6 m/s 740 mmHg 57%
    16:00 +7°C° 0 mm 5 m/s 740 mmHg 56%
    17:00 +6°C° 0 mm 5 m/s 741 mmHg 55%
    18:00 +5°C° 0 mm 4 m/s 741 mmHg 57%
    19:00 +4°C° 0 mm 4 m/s 741 mmHg 59%
    20:00 +3°C° 0 mm 3 m/s 742 mmHg 61%
    21:00 +2°C° 0 mm 3 m/s 741 mmHg 64%
    22:00 +1°C° 0 mm 3 m/s 741 mmHg 67%
    23:00 +2°C° 0 mm 2 m/s 741 mmHg 70%

    26 Setembro, Quarta-feira

    Tempo Temperatura Precipitação Vento Pressão Humidade
    00:00 +2°C° 0.2 mm 2 m/s 741 mmHg 73%
    01:00 +2°C° 0.2 mm 2 m/s 740 mmHg 77%
    02:00 +2°C° 0.2 mm 2 m/s 740 mmHg 81%
    03:00 +3°C° 0.5 mm 2 m/s 740 mmHg 85%
    04:00 +3°C° 0.5 mm 2 m/s 739 mmHg 89%
    05:00 +4°C° 0.5 mm 1 m/s 739 mmHg 93%
    06:00 +4°C° 0.1 mm 2 m/s 739 mmHg 92%
    07:00 +4°C° 0.1 mm 2 m/s 739 mmHg 91%
    08:00 +5°C° 0.1 mm 2 m/s 739 mmHg 90%
    09:00 +6°C° 0.1 mm 2 m/s 739 mmHg 85%
    10:00 +7°C° 0.1 mm 2 m/s 739 mmHg 80%
    11:00 +8°C° 0.1 mm 3 m/s 739 mmHg 75%
    12:00 +8°C° 0.2 mm 3 m/s 740 mmHg 72%
    13:00 +9°C° 0.2 mm 3 m/s 740 mmHg 69%
    14:00 +8°C° 0.2 mm 4 m/s 740 mmHg 65%
    15:00 +9°C° 0.1 mm 3 m/s 740 mmHg 68%
    16:00 +8°C° 0.1 mm 2 m/s 740 mmHg 70%
    17:00 +7°C° 0.1 mm 2 m/s 740 mmHg 72%
    18:00 +6°C° 0 mm 2 m/s 741 mmHg 76%
    19:00 +5°C° 0 mm 2 m/s 741 mmHg 80%
    20:00 +5°C° 0 mm 1 m/s 741 mmHg 84%
    21:00 +4°C° 0 mm 1 m/s 742 mmHg 85%
    22:00 +4°C° 0 mm 1 m/s 742 mmHg 86%
    23:00 +3°C° 0 mm 2 m/s 742 mmHg 86%
    Mostrar mais